Вернуться в каталог

SHIYAN 32-03

АктивенНаукаVLEO
NORAD 66379·PAYLOAD·🇨🇳 China

Запущен Nov 8, 2025 с Yellow Sea Launch Area

Loading…

Ближайшие Пролёты (ближайшие 24 часа)

TLE

СвежийSource: Space-Track

Эпоха: Sep 14, 2026, 22:21 UTC

1 66379U 25255D   26257.93133025  .00010518  00000-0  25400-3 0  9997
2 66379  52.9954 308.5371 0008304 108.4872 251.7035 15.41755390 47823

Отслеживайте SHIYAN 32-03 в реальном времени с AllMySat

Download on the App Store